Tracking 27079 objects as of 23-Mar-2023
HD Live streaming from Space Station
objects crossing your sky now

DMSP 5D-3 F18 DEB

Track DMSP 5D-3 F18 DEB now!
10-day predictions


NORAD ID: 36099
Int'l Code: 2009-057E
Perigee: 799.9 km
Apogee: 814.8 km
Inclination: 98.7 °
Period: 100.9 minutes
Semi major axis: 7178 km
RCS: 0.1565 m2 (medium)
Launch date: October 18, 2009
Source: United States (US)
Launch site: AIR FORCE WESTERN TEST RANGE (AFWTR)

Note: This is SATELLITE DEBRIS
Your satellite tracking list
Your tracking list is empty




NASA's NSSDC Master Catalog

Two Line Element Set (TLE):
1 36099U 09057E   23081.74578995  .00004618  00000-0  18972-2 0  9994
2 36099  98.6700 157.3960 0010366 220.3381 139.7031 14.27458815690740
Source of the keplerian elements: AFSPC